Terug naar catalogus

CHINASAT 4A

ActiefCommunicatieGEO
NORAD 60606·PAYLOAD·🇨🇳 China

Gelanceerd Aug 22, 2024 vanaf Wenchang Space Launch Site

Loading…

TLE

VersSource: Space-Track

Epoch: Sep 14, 2026, 21:12 UTC

1 60606U 24151A   26257.88369391 -.00000370  00000-0  00000-0 0  9991
2 60606   1.0891 270.0049 0000765  27.6844 132.5319  1.00273691  7651

Volg CHINASAT 4A in realtime met AllMySat

Download on the App Store